TimeCDT,TemperatureF,Dew PointF,Humidity,Sea Level PressureIn,VisibilityMPH,Wind Direction,Wind SpeedMPH,Gust SpeedMPH,PrecipitationIn,Events,Conditions,WindDirDegrees,DateUTC
12:15 AM,50.0,46.4,87,30.12,7.0,Calm,Calm,-,N/A,,Clear,0,2013-09-27 05:15:00
12:35 AM,48.2,46.4,93,30.12,0.5,Calm,Calm,-,N/A,Fog,Fog,0,2013-09-27 05:35:00
12:55 AM,50.0,46.4,87,30.12,3.0,Calm,Calm,-,N/A,,Clear,0,2013-09-27 05:55:00
1:15 AM,46.4,44.6,93,30.12,7.0,Calm,Calm,-,N/A,,Clear,0,2013-09-27 06:15:00
1:35 AM,48.2,44.6,87,30.13,7.0,Calm,Calm,-,N/A,,Clear,0,2013-09-27 06:35:00
1:55 AM,46.4,44.6,93,30.13,10.0,Calm,Calm,-,N/A,,Clear,0,2013-09-27 06:55:00
2:15 AM,46.4,42.8,87,30.13,10.0,Calm,Calm,-,N/A,,Clear,0,2013-09-27 07:15:00
2:35 AM,46.4,42.8,87,30.12,10.0,Calm,Calm,-,N/A,,Clear,0,2013-09-27 07:35:00
2:55 AM,46.4,44.6,93,30.12,5.0,Calm,Calm,-,N/A,,Clear,0,2013-09-27 07:55:00
3:15 AM,46.4,44.6,93,30.13,10.0,Calm,Calm,-,N/A,,Clear,0,2013-09-27 08:15:00
3:35 AM,46.4,44.6,93,30.13,4.0,Calm,Calm,-,N/A,,Clear,0,2013-09-27 08:35:00
3:55 AM,46.4,42.8,87,30.14,2.5,Calm,Calm,-,N/A,,Clear,0,2013-09-27 08:55:00
4:15 AM,46.4,44.6,93,30.14,7.0,Calm,Calm,-,N/A,,Clear,0,2013-09-27 09:15:00
4:35 AM,46.4,42.8,87,30.14,10.0,Calm,Calm,-,N/A,,Clear,0,2013-09-27 09:35:00
4:55 AM,44.6,42.8,93,30.14,7.0,Calm,Calm,-,N/A,,Clear,0,2013-09-27 09:55:00
5:15 AM,44.6,42.8,93,30.14,5.0,Calm,Calm,-,N/A,,Clear,0,2013-09-27 10:15:00
5:35 AM,44.6,42.8,93,30.15,7.0,Calm,Calm,-,N/A,,Clear,0,2013-09-27 10:35:00
5:55 AM,46.4,42.8,87,30.15,10.0,Calm,Calm,-,N/A,,Clear,0,2013-09-27 10:55:00
6:15 AM,44.6,42.8,93,30.16,7.0,Calm,Calm,-,N/A,,Clear,0,2013-09-27 11:15:00
6:35 AM,42.8,41.0,93,30.17,1.8,Calm,Calm,-,N/A,,Mist,0,2013-09-27 11:35:00
6:45 AM,44.6,42.8,93,30.17,5.0,Calm,Calm,-,N/A,,Clear,0,2013-09-27 11:45:00
6:55 AM,44.6,42.8,93,30.18,5.0,Calm,Calm,-,N/A,,Clear,0,2013-09-27 11:55:00
7:45 AM,48.2,44.6,87,30.18,6.0,Calm,Calm,-,N/A,,Clear,0,2013-09-27 12:45:00
8:45 AM,60.8,53.6,77,30.18,10.0,Calm,Calm,-,N/A,,Clear,0,2013-09-27 13:45:00
9:45 AM,66.2,48.2,52,30.18,10.0,South,10.4,-,N/A,,Clear,170,2013-09-27 14:45:00
10:45 AM,71.6,48.2,43,30.18,10.0,SSE,6.9,-,N/A,,Clear,150,2013-09-27 15:45:00
11:45 AM,73.4,48.2,41,30.17,10.0,SSE,8.1,-,N/A,,Clear,160,2013-09-27 16:45:00
12:45 PM,75.2,55.4,50,30.15,10.0,ESE,6.9,-,N/A,,Clear,110,2013-09-27 17:45:00
1:45 PM,73.4,51.8,47,30.14,10.0,East,9.2,-,N/A,,Clear,100,2013-09-27 18:45:00
2:45 PM,75.2,48.2,38,30.12,10.0,ESE,9.2,-,N/A,,Clear,110,2013-09-27 19:45:00
3:45 PM,73.4,51.8,47,30.11,10.0,ESE,10.4,-,N/A,,Clear,110,2013-09-27 20:45:00
4:45 PM,71.6,51.8,50,30.10,10.0,ESE,8.1,-,N/A,,Clear,120,2013-09-27 21:45:00
5:45 PM,71.6,44.6,38,30.10,10.0,SE,6.9,-,N/A,,Clear,130,2013-09-27 22:45:00
6:45 PM,66.2,46.4,49,30.09,10.0,SE,5.8,-,N/A,,Clear,130,2013-09-27 23:45:00
7:45 PM,62.6,51.8,68,30.09,10.0,Calm,Calm,-,N/A,,Clear,0,2013-09-28 00:45:00
8:45 PM,59.0,51.8,77,30.10,10.0,Calm,Calm,-,N/A,,Clear,0,2013-09-28 01:45:00
9:15 PM,55.4,50.0,82,30.10,10.0,Calm,Calm,-,N/A,,Clear,0,2013-09-28 02:15:00
9:35 PM,55.4,51.8,88,30.11,10.0,Calm,Calm,-,N/A,,Clear,0,2013-09-28 02:35:00
9:55 PM,53.6,51.8,94,30.10,10.0,Calm,Calm,-,N/A,,Clear,0,2013-09-28 02:55:00
10:15 PM,53.6,50.0,88,30.11,10.0,Calm,Calm,-,N/A,,Clear,0,2013-09-28 03:15:00
10:35 PM,53.6,50.0,88,30.10,10.0,Calm,Calm,-,N/A,,Clear,0,2013-09-28 03:35:00
10:55 PM,53.6,50.0,88,30.10,10.0,Calm,Calm,-,N/A,,Clear,0,2013-09-28 03:55:00
11:15 PM,51.8,50.0,94,30.10,5.0,Calm,Calm,-,N/A,,Clear,0,2013-09-28 04:15:00
11:35 PM,51.8,50.0,94,30.10,10.0,Calm,Calm,-,N/A,,Clear,0,2013-09-28 04:35:00
11:55 PM,51.8,48.2,88,30.09,10.0,Calm,Calm,-,N/A,,Clear,0,2013-09-28 04:55:00